User: anonymous   Login
Location: Lancaster
(34.6980°N, 118.1360°W)
Time: 23:43:32
(UTC-08:00)
Language:

Tiangong 1 - Orbit

View from above orbital plane
View from above orbital plane
View from above satellite
View from above satellite

Ground track
Ground track

The orbit data is extracted from the following two-line orbital elements,

1 37820U 11053A   17327.82294733  .00074352  10305-4  21466-3 0  9994
2 37820  42.7545 294.4722 0018129 146.5137 292.4946 15.92442300353295
Epoch (UTC): 23 November 2017 19:45:02
Eccentricity: 0.0018129
inclination: 42.7545°
perigee height: 283 km
apogee height: 307 km
right ascension of ascending node: 294.4722°
argument of perigee: 146.5137°
revolutions per day: 15.92442300
mean anomaly at epoch: 292.4946°
orbit number at epoch: 35329

The dashed part of the orbit path shows where the satellite is in the earth's shadow,  

DLR